Location: Étang Rond
(42.7927°N, 1.0661°E)
Time: 02:02:44
(UTC+00:00)

Helios 1A Rocket - Pass Details

Date: 08 November 2025
Orbit: 440 x 452 km, 98.3° (Epoch: 07 December)

Event Time Altitude Azimuth Distance (km) Brightness Sun altitude
Rises 05:23:29 0° 175° (S) 2,448 6.3 -14.1°
Reaches altitude 10° 05:25:32 10° 180° (S) 1,576 5.3 -13.7°
Maximum altitude 05:28:50 54° 258° (WSW) 550 2.5 -13.1°
Drops below altitude 10° 05:32:09 10° 337° (NNW) 1,577 4.8 -12.5°
Enters shadow 05:33:17 - 341° (NNW) 2,053 5.4 -12.3°
